Location: Kumla
(59.1265°N, 15.1401°E)
Time: 14:14:33
(UTC+01:00)

Transit 4A - Pass Details

Date: 07 December 2023
Orbit: 869 x 974 km, 66.8° (Epoch: 21 February)

Event Time Altitude Azimuth Distance (km) Brightness Sun altitude
Exits shadow 06:03:53 10° 231° (SW) 2,597 9.9 -17.6°
Drops below altitude 10° 06:03:53 10° 231° (SW) 2,598 9.9 -17.6°
Sets 06:07:44 0° 206° (SSW) 3,502 10.8 -17.1°
